GEFSMA_prec_meanprecacc_156.txt.gz
Total_Precipitation_Accumulation
1.60 1.67 1.60 1.73 1.78 1.92 2.10 2.39 2.42 2.55 2.55 2.44 2.08 1.79 1.70 1.56 1.43 1.61 1.85 1.70 1.49 1.59 1.94 2.22 2.08 1.82 1.67 1.61 1.46 1.35 1.24 1.20 1.08 0.83 0.73 0.77 0.75 0.74 0.69 0.64 0.58 0.51 0.45
2.15 2.31 2.29 2.25 2.07 2.09 2.31 2.55 2.68 3.07 2.96 2.78 2.27 2.06 1.86 1.77 1.50 1.52 1.79 1.95 1.60 1.48 1.65 2.07 2.31 2.19 2.01 1.88 1.72 1.55 1.39 1.29 1.24 0.93 0.72 0.73 0.78 0.76 0.74 0.70 0.61 0.50 0.41
2.45 2.60 2.56 2.43 2.39 2.41 2.55 2.68 2.83 2.95 2.69 2.58 2.41 2.24 2.00 1.78 1.50 1.48 1.62 1.80 1.71 1.52 1.56 1.77 2.09 2.24 2.19 2.11 2.05 1.86 1.55 1.36 1.19 0.97 0.73 0.65 0.68 0.70 0.69 0.70 0.62 0.50 0.36
2.62 2.87 2.68 2.53 2.79 2.69 2.78 3.07 3.05 3.01 2.80 2.68 2.52 2.28 2.09 1.84 1.46 1.40 1.42 1.59 1.82 1.62 1.62 1.74 1.86 1.93 2.16 2.33 2.34 2.23 1.99 1.64 1.27 1.05 0.86 0.80 0.81 0.79 0.74 0.67 0.62 0.49 0.34
2.51 2.75 2.58 2.60 2.72 2.97 2.98 2.78 3.18 3.13 2.94 2.81 2.38 2.13 1.84 1.60 1.41 1.29 1.29 1.34 1.54 1.45 1.45 1.57 1.65 1.73 2.09 2.62 2.77 2.70 2.57 2.26 1.79 1.50 1.45 1.39 1.36 1.20 0.98 0.79 0.63 0.50 0.36
2.39 2.72 2.55 2.50 2.64 2.86 2.80 2.79 3.02 3.01 2.77 2.76 2.26 1.85 1.64 1.34 1.28 1.27 1.15 1.19 1.24 1.11 1.17 1.41 1.81 1.54 1.65 2.00 2.41 2.73 2.89 2.87 2.57 2.52 2.59 2.37 2.18 1.79 1.31 1.01 0.77 0.63 0.50
2.22 2.56 2.36 2.56 2.54 2.56 2.54 2.58 2.81 2.84 2.60 2.70 2.49 1.97 1.48 1.13 1.07 1.07 1.10 1.13 1.05 1.13 1.40 1.64 1.81 1.84 1.72 1.56 1.66 2.09 2.72 3.10 2.92 2.77 2.93 3.02 2.95 2.39 1.67 1.26 0.96 0.75 0.63
2.05 2.21 2.29 2.21 2.26 2.32 2.33 2.38 2.58 2.44 2.21 2.42 2.48 2.36 1.71 1.33 1.03 0.84 1.07 1.11 1.08 1.24 1.35 1.42 1.66 1.93 1.96 2.09 1.66 1.50 2.04 2.71 2.96 2.83 2.74 2.99 3.06 2.52 1.89 1.61 1.27 0.98 0.84
1.87 1.92 1.99 2.02 2.04 1.99 2.06 2.22 2.22 2.16 2.04 2.06 2.25 2.42 2.02 1.55 1.24 0.88 0.80 0.89 1.08 1.20 1.22 1.37 1.40 1.54 1.65 1.99 2.00 1.70 1.60 1.85 2.47 3.00 3.00 2.92 2.86 2.46 2.07 1.87 1.65 1.30 1.09
1.60 1.60 1.61 1.65 1.71 1.76 1.89 1.79 1.84 2.00 2.03 1.89 2.00 2.05 1.97 1.91 1.73 1.20 0.87 0.85 1.06 1.12 1.12 1.12 1.22 1.40 1.51 1.67 1.80 1.76 1.59 1.50 1.81 2.44 2.89 2.96 2.76 2.32 2.07 2.07 2.19 1.93 1.46
1.49 1.41 1.44 1.44 1.43 1.47 1.58 1.62 1.82 1.85 1.90 1.86 1.82 1.82 1.91 1.90 1.76 1.52 1.15 1.03 1.01 0.93 0.99 1.05 1.16 1.37 1.55 1.65 1.80 1.65 1.66 1.51 1.58 1.76 2.14 2.48 2.57 2.48 2.21 2.22 2.57 2.66 2.27
1.28 1.29 1.28 1.27 1.28 1.34 1.46 1.51 1.55 1.56 1.62 1.66 1.63 1.63 1.72 1.67 1.60 1.64 1.37 1.25 1.21 1.02 1.05 1.09 1.13 1.26 1.34 1.45 1.37 1.46 1.44 1.31 1.30 1.30 1.35 1.63 1.94 2.10 2.14 2.26 2.58 2.81 2.78
1.00 1.00 1.06 1.10 1.13 1.21 1.33 1.37 1.34 1.36 1.43 1.48 1.45 1.51 1.59 1.56 1.55 1.68 1.71 1.54 1.42 1.18 1.20 1.20 1.12 1.20 1.18 1.39 1.34 1.21 1.04 0.96 0.89 0.88 0.93 1.07 1.25 1.44 1.62 1.88 2.25 2.56 2.71
0.84 0.84 0.89 0.96 1.02 1.07 1.11 1.28 1.32 1.33 1.37 1.41 1.40 1.57 1.57 1.46 1.49 1.61 1.77 1.90 1.78 1.49 1.45 1.34 1.16 1.08 1.15 1.23 1.15 0.97 0.78 0.72 0.68 0.66 0.64 0.72 0.86 0.98 1.11 1.30 1.58 1.82 2.01
0.98 0.94 0.94 0.98 1.05 1.12 1.18 1.27 1.35 1.37 1.44 1.48 1.55 1.66 1.59 1.46 1.43 1.51 1.77 1.96 2.06 1.83 1.61 1.43 1.31 1.06 1.08 1.03 0.98 0.90 0.89 0.71 0.55 0.53 0.52 0.50 0.54 0.64 0.73 0.83 0.96 1.12 1.24
1.03 1.02 1.02 1.00 1.01 1.05 1.15 1.25 1.36 1.41 1.48 1.57 1.61 1.69 1.73 1.65 1.64 1.67 1.80 1.96 2.09 2.12 1.80 1.51 1.49 1.23 1.11 0.93 0.89 0.85 0.78 0.72 0.56 0.46 0.46 0.44 0.43 0.47 0.51 0.58 0.66 0.74 0.84
0.94 0.89 0.86 0.82 0.84 0.86 0.89 0.97 1.05 1.12 1.20 1.29 1.33 1.44 1.59 1.73 1.74 1.75 1.81 1.86 1.98 2.14 1.89 1.80 1.89 1.74 1.51 1.25 1.06 0.92 0.77 0.75 0.65 0.52 0.43 0.43 0.43 0.44 0.46 0.51 0.53 0.59 0.66
0.70 0.65 0.62 0.61 0.61 0.61 0.63 0.68 0.74 0.87 1.00 1.10 1.18 1.24 1.23 1.31 1.42 1.50 1.61 1.74 1.87 2.07 2.00 2.03 2.19 2.16 1.90 1.54 1.37 1.20 0.91 0.78 0.71 0.63 0.48 0.39 0.41 0.44 0.45 0.48 0.51 0.54 0.57
0.44 0.44 0.50 0.52 0.49 0.51 0.56 0.61 0.68 0.78 0.86 0.92 0.97 0.98 0.93 0.97 1.05 1.18 1.27 1.42 1.62 1.89 2.01 2.13 2.33 2.28 2.04 1.79 1.63 1.35 1.15 1.06 0.84 0.75 0.62 0.46 0.39 0.41 0.45 0.47 0.52 0.58 0.59
0.34 0.34 0.41 0.46 0.46 0.49 0.58 0.71 0.81 0.82 0.82 0.79 0.74 0.70 0.71 0.81 0.89 1.00 1.12 1.20 1.33 1.55 1.73 1.94 2.21 2.25 2.11 2.00 1.89 1.57 1.37 1.28 1.10 0.89 0.81 0.60 0.49 0.44 0.44 0.47 0.51 0.58 0.67
0.29 0.32 0.40 0.46 0.51 0.53 0.53 0.59 0.69 0.70 0.73 0.71 0.65 0.56 0.53 0.60 0.67 0.76 0.83 1.00 1.14 1.34 1.47 1.67 1.96 2.20 2.06 1.95 1.85 1.73 1.57 1.51 1.41 1.21 1.15 0.89 0.71 0.58 0.46 0.45 0.49 0.58 0.74
0.30 0.34 0.39 0.42 0.42 0.36 0.37 0.40 0.48 0.52 0.54 0.57 0.57 0.50 0.43 0.43 0.49 0.56 0.66 0.75 0.87 1.03 1.22 1.49 1.73 1.92 1.83 1.77 1.86 1.90 1.85 1.66 1.60 1.49 1.55 1.45 1.22 1.05 0.79 0.55 0.46 0.50 0.64
0.37 0.42 0.41 0.40 0.39 0.40 0.33 0.29 0.30 0.37 0.41 0.42 0.46 0.50 0.41 0.36 0.43 0.49 0.54 0.53 0.63 0.75 0.89 1.15 1.39 1.56 1.72 1.72 1.90 2.04 2.12 2.02 1.90 1.79 1.90 1.98 1.86 1.70 1.12 0.87 0.77 0.62 0.59
0.49 0.51 0.48 0.44 0.47 0.44 0.31 0.27 0.27 0.28 0.34 0.38 0.40 0.43 0.46 0.49 0.46 0.45 0.54 0.56 0.52 0.55 0.62 0.69 0.91 1.23 1.72 1.96 1.94 2.02 2.23 2.26 2.14 2.08 2.12 2.29 2.14 2.06 1.63 1.17 0.91 0.66 0.57
0.54 0.54 0.53 0.50 0.50 0.47 0.34 0.25 0.25 0.30 0.36 0.39 0.40 0.38 0.38 0.45 0.45 0.36 0.43 0.50 0.52 0.52 0.53 0.61 0.75 1.01 1.28 1.61 1.80 1.87 1.98 2.13 2.29 2.27 2.22 2.31 2.28 2.17 2.17 1.85 1.27 0.87 0.60
0.58 0.53 0.51 0.52 0.52 0.53 0.40 0.24 0.23 0.31 0.38 0.42 0.47 0.43 0.34 0.30 0.31 0.29 0.40 0.49 0.50 0.50 0.53 0.59 0.65 0.77 0.97 1.16 1.23 1.24 1.35 1.47 1.69 1.87 1.82 1.97 2.22 2.27 2.46 2.48 1.98 1.38 0.99

GEFSMA_prec_meanprecacc_162.txt.gz
Total_Precipitation_Accumulation
1.63 1.71 1.64 1.79 1.83 1.94 2.11 2.40 2.45 2.59 2.61 2.50 2.14 1.86 1.79 1.66 1.52 1.65 1.86 1.72 1.52 1.63 1.98 2.27 2.11 1.85 1.70 1.64 1.50 1.38 1.26 1.22 1.09 0.84 0.74 0.79 0.76 0.74 0.70 0.65 0.59 0.52 0.46
2.18 2.34 2.32 2.29 2.11 2.11 2.34 2.57 2.71 3.11 3.00 2.82 2.32 2.10 1.92 1.84 1.64 1.58 1.81 1.97 1.63 1.51 1.69 2.12 2.35 2.22 2.03 1.90 1.75 1.58 1.41 1.31 1.25 0.93 0.72 0.74 0.79 0.77 0.75 0.71 0.62 0.50 0.42
2.48 2.62 2.58 2.45 2.42 2.44 2.58 2.71 2.86 2.98 2.73 2.61 2.45 2.29 2.05 1.85 1.61 1.55 1.66 1.83 1.73 1.55 1.61 1.81 2.14 2.28 2.23 2.15 2.08 1.89 1.59 1.39 1.21 0.99 0.74 0.65 0.68 0.71 0.70 0.72 0.64 0.51 0.37
2.68 2.90 2.70 2.55 2.82 2.71 2.80 3.10 3.08 3.05 2.86 2.73 2.56 2.34 2.15 1.90 1.54 1.46 1.46 1.62 1.86 1.65 1.65 1.79 1.92 1.99 2.21 2.38 2.38 2.28 2.03 1.67 1.30 1.07 0.88 0.82 0.82 0.80 0.75 0.68 0.63 0.50 0.34
2.57 2.78 2.60 2.61 2.74 2.98 3.00 2.80 3.20 3.16 2.99 2.85 2.41 2.18 1.90 1.65 1.47 1.35 1.35 1.38 1.59 1.50 1.49 1.61 1.71 1.79 2.15 2.68 2.83 2.77 2.61 2.29 1.83 1.54 1.48 1.42 1.38 1.21 1.00 0.80 0.65 0.51 0.37
2.43 2.74 2.57 2.51 2.65 2.87 2.81 2.80 3.04 3.04 2.81 2.80 2.31 1.91 1.71 1.42 1.37 1.36 1.22 1.25 1.29 1.16 1.22 1.45 1.84 1.58 1.70 2.05 2.46 2.79 2.96 2.93 2.61 2.56 2.63 2.40 2.21 1.81 1.32 1.02 0.79 0.65 0.51
2.26 2.59 2.38 2.57 2.55 2.57 2.55 2.59 2.83 2.86 2.62 2.73 2.54 2.03 1.54 1.21 1.15 1.16 1.16 1.18 1.12 1.20 1.46 1.69 1.85 1.87 1.75 1.59 1.69 2.12 2.78 3.17 2.98 2.82 2.98 3.06 2.98 2.41 1.69 1.28 0.97 0.77 0.65
2.08 2.23 2.31 2.22 2.27 2.33 2.35 2.40 2.59 2.46 2.22 2.43 2.50 2.39 1.75 1.37 1.06 0.88 1.12 1.15 1.14 1.31 1.42 1.45 1.70 1.96 1.99 2.11 1.67 1.53 2.08 2.76 3.03 2.89 2.80 3.04 3.10 2.55 1.92 1.64 1.29 1.00 0.86
1.89 1.95 2.03 2.04 2.05 2.00 2.07 2.23 2.23 2.17 2.05 2.06 2.26 2.43 2.03 1.57 1.26 0.91 0.84 0.92 1.11 1.23 1.26 1.40 1.43 1.57 1.66 2.00 2.01 1.72 1.61 1.87 2.50 3.04 3.05 2.96 2.90 2.48 2.09 1.90 1.68 1.33 1.12
1.62 1.63 1.63 1.66 1.73 1.77 1.90 1.79 1.84 2.01 2.03 1.90 2.01 2.06 1.98 1.92 1.74 1.22 0.89 0.87 1.08 1.13 1.14 1.14 1.24 1.42 1.52 1.69 1.82 1.77 1.60 1.51 1.82 2.45 2.91 2.98 2.77 2.33 2.09 2.08 2.21 1.95 1.49
1.50 1.42 1.45 1.45 1.44 1.48 1.59 1.63 1.82 1.85 1.90 1.86 1.83 1.83 1.91 1.91 1.76 1.52 1.16 1.05 1.03 0.94 0.99 1.06 1.17 1.38 1.56 1.67 1.81 1.66 1.67 1.51 1.58 1.76 2.14 2.48 2.58 2.48 2.22 2.23 2.59 2.68 2.30
1.30 1.30 1.30 1.30 1.30 1.34 1.47 1.51 1.55 1.57 1.62 1.67 1.64 1.64 1.73 1.67 1.60 1.64 1.37 1.26 1.21 1.02 1.05 1.09 1.13 1.26 1.34 1.45 1.37 1.46 1.44 1.31 1.30 1.30 1.35 1.63 1.94 2.10 2.15 2.27 2.59 2.82 2.80
1.03 1.02 1.09 1.12 1.14 1.22 1.34 1.38 1.34 1.36 1.43 1.48 1.45 1.51 1.60 1.57 1.55 1.68 1.71 1.54 1.42 1.18 1.20 1.20 1.12 1.20 1.18 1.39 1.34 1.21 1.04 0.96 0.89 0.88 0.93 1.07 1.25 1.44 1.62 1.88 2.25 2.57 2.72
0.88 0.86 0.91 0.98 1.04 1.08 1.12 1.28 1.33 1.34 1.37 1.41 1.40 1.58 1.57 1.46 1.49 1.61 1.77 1.90 1.78 1.49 1.45 1.34 1.16 1.08 1.15 1.23 1.15 0.97 0.78 0.72 0.68 0.66 0.64 0.72 0.86 0.98 1.11 1.31 1.58 1.82 2.01
1.02 0.97 0.97 1.00 1.07 1.13 1.19 1.28 1.36 1.37 1.44 1.48 1.56 1.66 1.59 1.46 1.44 1.51 1.77 1.96 2.06 1.84 1.61 1.44 1.31 1.06 1.08 1.03 0.98 0.90 0.89 0.71 0.55 0.53 0.52 0.50 0.54 0.64 0.73 0.83 0.96 1.12 1.24
1.06 1.05 1.05 1.03 1.03 1.07 1.17 1.26 1.37 1.41 1.48 1.57 1.61 1.70 1.74 1.65 1.64 1.67 1.80 1.96 2.09 2.12 1.80 1.51 1.49 1.23 1.11 0.93 0.89 0.85 0.78 0.73 0.56 0.46 0.46 0.44 0.43 0.47 0.51 0.58 0.66 0.74 0.84
0.96 0.92 0.88 0.85 0.86 0.87 0.90 0.98 1.05 1.12 1.20 1.29 1.33 1.44 1.59 1.73 1.74 1.75 1.81 1.86 1.98 2.14 1.89 1.80 1.89 1.74 1.51 1.25 1.06 0.92 0.77 0.75 0.65 0.52 0.43 0.43 0.43 0.44 0.46 0.51 0.53 0.59 0.66
0.72 0.66 0.64 0.64 0.64 0.63 0.65 0.68 0.75 0.88 1.00 1.10 1.18 1.24 1.23 1.31 1.42 1.50 1.61 1.74 1.87 2.07 2.00 2.03 2.19 2.16 1.90 1.54 1.37 1.20 0.91 0.78 0.71 0.63 0.48 0.39 0.41 0.44 0.45 0.48 0.51 0.54 0.57
0.47 0.46 0.52 0.54 0.52 0.54 0.58 0.62 0.69 0.78 0.86 0.92 0.97 0.98 0.93 0.97 1.05 1.18 1.27 1.42 1.62 1.89 2.01 2.13 2.33 2.28 2.04 1.79 1.63 1.35 1.15 1.06 0.84 0.75 0.62 0.46 0.39 0.41 0.45 0.47 0.52 0.58 0.59
0.38 0.39 0.44 0.48 0.48 0.52 0.61 0.73 0.82 0.82 0.82 0.79 0.74 0.71 0.71 0.81 0.89 1.00 1.12 1.20 1.33 1.55 1.73 1.94 2.21 2.25 2.11 2.00 1.89 1.58 1.37 1.28 1.10 0.89 0.81 0.60 0.49 0.44 0.44 0.47 0.51 0.58 0.67
0.32 0.36 0.44 0.50 0.54 0.57 0.56 0.62 0.71 0.72 0.74 0.72 0.65 0.56 0.53 0.60 0.67 0.76 0.83 1.00 1.14 1.34 1.47 1.67 1.96 2.20 2.06 1.95 1.85 1.73 1.57 1.51 1.41 1.21 1.15 0.89 0.71 0.58 0.46 0.45 0.49 0.58 0.74
0.33 0.36 0.42 0.45 0.45 0.39 0.40 0.43 0.50 0.54 0.55 0.58 0.58 0.50 0.43 0.43 0.49 0.56 0.66 0.75 0.87 1.03 1.22 1.49 1.73 1.92 1.83 1.77 1.86 1.90 1.85 1.66 1.60 1.49 1.55 1.45 1.22 1.05 0.79 0.55 0.47 0.50 0.64
0.40 0.45 0.44 0.43 0.42 0.43 0.37 0.34 0.33 0.40 0.43 0.43 0.47 0.51 0.42 0.37 0.44 0.49 0.54 0.53 0.63 0.75 0.89 1.15 1.39 1.56 1.72 1.72 1.90 2.04 2.12 2.02 1.90 1.79 1.91 1.99 1.86 1.70 1.12 0.87 0.77 0.62 0.59
0.53 0.55 0.52 0.47 0.49 0.46 0.34 0.30 0.30 0.31 0.36 0.39 0.41 0.44 0.47 0.49 0.46 0.45 0.54 0.56 0.52 0.55 0.62 0.69 0.91 1.23 1.72 1.97 1.94 2.03 2.23 2.26 2.14 2.08 2.12 2.30 2.14 2.06 1.63 1.17 0.91 0.66 0.57
0.58 0.58 0.58 0.53 0.52 0.50 0.37 0.28 0.27 0.32 0.37 0.40 0.41 0.39 0.39 0.46 0.46 0.36 0.43 0.50 0.52 0.52 0.53 0.61 0.75 1.01 1.28 1.61 1.80 1.87 1.99 2.14 2.29 2.27 2.22 2.32 2.28 2.17 2.17 1.85 1.27 0.87 0.61
0.66 0.61 0.58 0.58 0.55 0.55 0.43 0.27 0.25 0.33 0.40 0.44 0.50 0.45 0.35 0.31 0.31 0.29 0.40 0.49 0.50 0.50 0.53 0.59 0.65 0.77 0.97 1.16 1.23 1.25 1.36 1.47 1.69 1.88 1.82 1.98 2.23 2.27 2.47 2.48 1.98 1.38 0.99

GEFSMA_prec_meanprecacc_168.txt.gz
Total_Precipitation_Accumulation
1.63 1.72 1.65 1.79 1.83 1.95 2.12 2.42 2.47 2.61 2.63 2.53 2.16 1.88 1.79 1.67 1.54 1.66 1.88 1.76 1.56 1.68 2.06 2.35 2.19 1.93 1.77 1.70 1.56 1.43 1.30 1.27 1.14 0.88 0.79 0.84 0.81 0.77 0.72 0.66 0.60 0.52 0.47
2.18 2.34 2.32 2.30 2.11 2.12 2.35 2.59 2.74 3.14 3.03 2.85 2.34 2.12 1.92 1.86 1.65 1.58 1.82 2.00 1.68 1.57 1.78 2.23 2.46 2.32 2.12 1.97 1.82 1.64 1.47 1.37 1.30 0.97 0.76 0.78 0.84 0.82 0.78 0.73 0.63 0.51 0.43
2.49 2.63 2.59 2.48 2.45 2.45 2.59 2.73 2.89 3.01 2.75 2.63 2.47 2.30 2.05 1.86 1.63 1.56 1.66 1.84 1.75 1.60 1.68 1.90 2.25 2.38 2.33 2.26 2.17 1.97 1.65 1.45 1.26 1.03 0.77 0.69 0.72 0.75 0.75 0.76 0.68 0.53 0.38
2.69 2.91 2.72 2.57 2.85 2.73 2.83 3.13 3.12 3.08 2.89 2.75 2.59 2.36 2.16 1.91 1.55 1.47 1.47 1.63 1.87 1.68 1.70 1.88 2.02 2.11 2.35 2.52 2.52 2.38 2.10 1.72 1.35 1.12 0.92 0.86 0.85 0.83 0.79 0.72 0.68 0.53 0.37
2.58 2.79 2.62 2.63 2.77 3.01 3.02 2.83 3.24 3.20 3.02 2.88 2.44 2.20 1.92 1.67 1.48 1.37 1.37 1.40 1.60 1.51 1.51 1.67 1.79 1.87 2.27 2.81 2.97 2.88 2.72 2.37 1.88 1.58 1.52 1.46 1.41 1.24 1.02 0.84 0.69 0.55 0.40
2.43 2.76 2.59 2.52 2.66 2.88 2.83 2.83 3.08 3.07 2.84 2.84 2.34 1.94 1.75 1.45 1.40 1.40 1.25 1.27 1.31 1.18 1.24 1.48 1.88 1.63 1.77 2.13 2.56 2.91 3.08 3.05 2.70 2.62 2.68 2.45 2.26 1.85 1.35 1.04 0.81 0.68 0.55
2.27 2.60 2.40 2.58 2.57 2.58 2.57 2.63 2.86 2.89 2.65 2.74 2.56 2.06 1.57 1.24 1.18 1.21 1.22 1.23 1.15 1.23 1.48 1.71 1.87 1.89 1.78 1.63 1.74 2.20 2.87 3.28 3.08 2.89 3.04 3.13 3.04 2.46 1.73 1.31 1.01 0.80 0.68
2.10 2.25 2.33 2.24 2.30 2.35 2.37 2.42 2.61 2.47 2.24 2.44 2.51 2.41 1.76 1.38 1.08 0.91 1.17 1.21 1.16 1.33 1.44 1.48 1.72 1.98 2.00 2.13 1.69 1.56 2.13 2.82 3.11 2.97 2.86 3.09 3.16 2.60 1.96 1.68 1.34 1.02 0.87
1.91 1.98 2.06 2.06 2.08 2.03 2.09 2.25 2.25 2.19 2.06 2.08 2.28 2.44 2.03 1.57 1.27 0.92 0.85 0.94 1.12 1.25 1.29 1.44 1.45 1.59 1.68 2.02 2.03 1.74 1.64 1.90 2.53 3.10 3.11 3.01 2.93 2.52 2.13 1.94 1.72 1.36 1.14
1.65 1.67 1.67 1.69 1.75 1.79 1.92 1.82 1.86 2.03 2.05 1.92 2.02 2.06 1.98 1.92 1.74 1.22 0.90 0.88 1.08 1.14 1.15 1.15 1.26 1.43 1.54 1.70 1.83 1.78 1.61 1.51 1.83 2.48 2.94 3.01 2.79 2.35 2.10 2.11 2.25 2.00 1.53
1.54 1.46 1.49 1.48 1.47 1.50 1.61 1.64 1.84 1.87 1.91 1.87 1.84 1.84 1.92 1.91 1.76 1.52 1.16 1.05 1.04 0.95 1.00 1.06 1.17 1.38 1.56 1.67 1.82 1.67 1.67 1.52 1.58 1.76 2.15 2.49 2.59 2.49 2.23 2.24 2.60 2.70 2.33
1.32 1.33 1.33 1.31 1.31 1.36 1.49 1.53 1.56 1.59 1.63 1.67 1.64 1.64 1.73 1.67 1.60 1.64 1.37 1.26 1.22 1.03 1.05 1.09 1.13 1.26 1.35 1.46 1.37 1.47 1.45 1.31 1.30 1.31 1.35 1.63 1.94 2.11 2.15 2.27 2.60 2.83 2.81
1.04 1.03 1.10 1.14 1.15 1.23 1.35 1.39 1.35 1.37 1.44 1.48 1.45 1.51 1.60 1.57 1.56 1.69 1.71 1.54 1.42 1.18 1.20 1.20 1.12 1.20 1.18 1.39 1.34 1.21 1.04 0.96 0.89 0.88 0.93 1.07 1.25 1.44 1.62 1.88 2.25 2.57 2.72
0.91 0.89 0.93 1.00 1.06 1.10 1.15 1.30 1.33 1.34 1.38 1.41 1.40 1.58 1.57 1.46 1.49 1.61 1.77 1.90 1.78 1.49 1.45 1.34 1.16 1.08 1.15 1.23 1.15 0.97 0.78 0.72 0.68 0.66 0.64 0.72 0.86 0.98 1.11 1.31 1.58 1.82 2.01
1.09 1.02 1.00 1.03 1.09 1.16 1.22 1.30 1.37 1.38 1.45 1.49 1.56 1.67 1.59 1.46 1.44 1.51 1.77 1.96 2.06 1.84 1.61 1.44 1.31 1.06 1.08 1.03 0.98 0.90 0.89 0.71 0.55 0.53 0.52 0.50 0.54 0.64 0.73 0.83 0.96 1.12 1.24
1.14 1.11 1.10 1.06 1.05 1.09 1.19 1.28 1.38 1.42 1.48 1.58 1.61 1.70 1.74 1.65 1.64 1.67 1.80 1.96 2.09 2.12 1.80 1.51 1.49 1.23 1.11 0.93 0.89 0.85 0.78 0.73 0.56 0.46 0.46 0.44 0.43 0.47 0.51 0.58 0.66 0.74 0.84
1.01 0.97 0.93 0.89 0.88 0.89 0.92 1.00 1.06 1.13 1.21 1.29 1.33 1.45 1.59 1.73 1.74 1.75 1.81 1.86 1.98 2.14 1.89 1.80 1.89 1.74 1.51 1.25 1.06 0.92 0.77 0.75 0.65 0.52 0.43 0.43 0.43 0.44 0.46 0.51 0.53 0.59 0.66
0.77 0.72 0.69 0.67 0.66 0.65 0.66 0.70 0.76 0.89 1.00 1.10 1.18 1.24 1.23 1.32 1.42 1.50 1.61 1.74 1.87 2.07 2.00 2.03 2.19 2.16 1.90 1.54 1.37 1.20 0.91 0.78 0.71 0.63 0.48 0.39 0.41 0.44 0.45 0.48 0.51 0.54 0.57
0.53 0.52 0.56 0.57 0.54 0.55 0.60 0.63 0.71 0.80 0.87 0.93 0.98 0.99 0.93 0.97 1.05 1.18 1.27 1.42 1.62 1.89 2.01 2.13 2.33 2.28 2.04 1.79 1.63 1.35 1.15 1.06 0.84 0.75 0.62 0.47 0.39 0.41 0.45 0.47 0.52 0.58 0.59
0.45 0.45 0.49 0.51 0.52 0.56 0.64 0.76 0.85 0.86 0.84 0.81 0.75 0.71 0.71 0.81 0.89 1.00 1.13 1.20 1.33 1.55 1.73 1.94 2.21 2.25 2.11 2.00 1.89 1.58 1.37 1.28 1.10 0.89 0.81 0.60 0.49 0.44 0.44 0.47 0.51 0.58 0.67
0.39 0.43 0.51 0.56 0.59 0.62 0.61 0.67 0.76 0.77 0.78 0.75 0.67 0.57 0.54 0.60 0.67 0.77 0.83 1.00 1.15 1.34 1.47 1.67 1.96 2.20 2.06 1.95 1.85 1.73 1.57 1.51 1.41 1.21 1.15 0.89 0.71 0.58 0.46 0.45 0.49 0.58 0.74
0.43 0.46 0.49 0.52 0.50 0.43 0.44 0.49 0.57 0.61 0.62 0.64 0.62 0.53 0.45 0.44 0.50 0.57 0.67 0.76 0.87 1.04 1.22 1.49 1.73 1.92 1.83 1.77 1.86 1.90 1.85 1.66 1.60 1.49 1.55 1.45 1.22 1.05 0.79 0.55 0.47 0.50 0.64
0.47 0.52 0.51 0.49 0.47 0.46 0.40 0.39 0.42 0.49 0.51 0.50 0.53 0.56 0.46 0.39 0.46 0.51 0.56 0.54 0.64 0.75 0.89 1.16 1.39 1.56 1.72 1.72 1.90 2.04 2.12 2.02 1.90 1.79 1.91 1.99 1.86 1.70 1.12 0.87 0.77 0.62 0.59
0.54 0.57 0.55 0.51 0.53 0.50 0.38 0.35 0.37 0.40 0.45 0.47 0.48 0.49 0.52 0.53 0.49 0.48 0.56 0.58 0.53 0.56 0.63 0.70 0.91 1.23 1.72 1.97 1.94 2.03 2.23 2.26 2.14 2.08 2.12 2.30 2.14 2.06 1.63 1.17 0.91 0.66 0.57
0.61 0.60 0.60 0.55 0.55 0.53 0.40 0.31 0.30 0.35 0.42 0.45 0.46 0.44 0.44 0.50 0.49 0.39 0.45 0.52 0.53 0.53 0.54 0.61 0.76 1.01 1.29 1.61 1.80 1.87 1.99 2.14 2.29 2.27 2.22 2.32 2.28 2.17 2.17 1.85 1.27 0.87 0.61
0.69 0.65 0.62 0.60 0.57 0.57 0.46 0.31 0.30 0.36 0.43 0.47 0.53 0.49 0.39 0.36 0.35 0.33 0.43 0.51 0.52 0.52 0.54 0.59 0.65 0.77 0.97 1.16 1.23 1.25 1.36 1.48 1.69 1.88 1.82 1.98 2.23 2.27 2.47 2.48 1.98 1.38 0.99

GEFSMA_prec_meanprecacc_174.txt.gz
Total_Precipitation_Accumulation
1.65 1.74 1.67 1.83 1.86 1.97 2.14 2.45 2.50 2.64 2.66 2.57 2.21 1.91 1.83 1.70 1.57 1.70 1.92 1.80 1.60 1.75 2.16 2.44 2.29 2.03 1.86 1.76 1.61 1.47 1.34 1.30 1.17 0.90 0.81 0.88 0.85 0.80 0.74 0.68 0.61 0.54 0.48
2.20 2.36 2.34 2.33 2.15 2.15 2.38 2.62 2.76 3.18 3.07 2.91 2.40 2.17 1.96 1.89 1.69 1.63 1.85 2.04 1.71 1.61 1.85 2.31 2.56 2.42 2.21 2.05 1.88 1.69 1.52 1.41 1.33 0.99 0.79 0.81 0.88 0.85 0.81 0.76 0.65 0.54 0.44
2.51 2.66 2.62 2.50 2.48 2.49 2.63 2.78 2.93 3.04 2.79 2.68 2.52 2.36 2.10 1.91 1.67 1.61 1.69 1.88 1.79 1.63 1.72 1.95 2.30 2.45 2.39 2.32 2.23 2.01 1.69 1.48 1.29 1.06 0.80 0.72 0.75 0.78 0.78 0.79 0.70 0.55 0.40
2.70 2.94 2.75 2.61 2.89 2.78 2.88 3.19 3.18 3.13 2.96 2.81 2.66 2.43 2.22 1.97 1.62 1.53 1.50 1.67 1.94 1.72 1.74 1.91 2.06 2.15 2.41 2.57 2.57 2.43 2.14 1.76 1.38 1.15 0.95 0.88 0.87 0.85 0.81 0.75 0.70 0.55 0.38
2.60 2.82 2.66 2.67 2.80 3.05 3.08 2.87 3.29 3.26 3.12 2.97 2.51 2.28 1.99 1.74 1.56 1.42 1.43 1.47 1.69 1.58 1.57 1.71 1.82 1.92 2.33 2.87 3.03 2.95 2.78 2.42 1.91 1.60 1.54 1.49 1.44 1.26 1.03 0.86 0.71 0.57 0.42
2.46 2.81 2.63 2.56 2.70 2.94 2.90 2.91 3.17 3.15 2.92 2.92 2.39 1.99 1.81 1.50 1.46 1.47 1.31 1.34 1.39 1.22 1.27 1.51 1.93 1.68 1.81 2.16 2.60 2.96 3.12 3.10 2.74 2.64 2.70 2.48 2.28 1.87 1.36 1.06 0.83 0.70 0.56
2.31 2.65 2.43 2.63 2.61 2.65 2.64 2.69 2.94 2.98 2.72 2.80 2.64 2.13 1.61 1.27 1.23 1.26 1.28 1.32 1.22 1.27 1.52 1.74 1.92 1.95 1.82 1.65 1.76 2.23 2.90 3.31 3.11 2.92 3.07 3.15 3.06 2.48 1.74 1.33 1.02 0.81 0.69
2.13 2.28 2.38 2.28 2.36 2.42 2.42 2.48 2.69 2.59 2.31 2.50 2.59 2.49 1.84 1.46 1.13 0.94 1.21 1.27 1.23 1.39 1.49 1.52 1.78 2.06 2.06 2.18 1.72 1.57 2.15 2.86 3.15 3.01 2.89 3.12 3.18 2.62 1.97 1.70 1.35 1.04 0.89
1.95 2.01 2.10 2.12 2.15 2.08 2.15 2.32 2.32 2.29 2.14 2.14 2.33 2.51 2.10 1.64 1.32 0.96 0.87 0.98 1.18 1.33 1.37 1.51 1.51 1.64 1.73 2.08 2.07 1.76 1.65 1.91 2.55 3.14 3.15 3.05 2.96 2.54 2.14 1.96 1.74 1.38 1.16
1.69 1.71 1.72 1.74 1.81 1.83 1.99 1.87 1.90 2.09 2.13 1.98 2.07 2.09 2.02 1.97 1.80 1.27 0.94 0.90 1.11 1.20 1.20 1.18 1.29 1.46 1.57 1.74 1.88 1.80 1.61 1.51 1.84 2.49 2.96 3.03 2.81 2.36 2.11 2.12 2.26 2.02 1.55
1.58 1.51 1.55 1.53 1.53 1.55 1.67 1.69 1.88 1.92 1.96 1.92 1.88 1.86 1.94 1.94 1.80 1.57 1.21 1.09 1.07 0.97 1.02 1.08 1.19 1.40 1.58 1.69 1.85 1.69 1.67 1.52 1.58 1.76 2.15 2.50 2.60 2.50 2.24 2.24 2.61 2.71 2.34
1.37 1.37 1.38 1.37 1.37 1.41 1.54 1.59 1.62 1.63 1.68 1.72 1.68 1.67 1.76 1.70 1.62 1.68 1.42 1.29 1.25 1.04 1.06 1.10 1.14 1.27 1.36 1.46 1.38 1.47 1.45 1.31 1.30 1.31 1.35 1.64 1.95 2.11 2.15 2.27 2.60 2.83 2.82
1.12 1.09 1.15 1.19 1.19 1.26 1.39 1.44 1.40 1.41 1.47 1.52 1.49 1.54 1.62 1.58 1.57 1.70 1.73 1.56 1.45 1.20 1.21 1.21 1.12 1.21 1.18 1.39 1.35 1.21 1.04 0.96 0.89 0.88 0.93 1.07 1.25 1.45 1.62 1.88 2.26 2.57 2.73
1.00 0.98 1.00 1.04 1.10 1.13 1.18 1.34 1.37 1.37 1.41 1.45 1.43 1.62 1.60 1.47 1.49 1.61 1.78 1.92 1.80 1.51 1.46 1.35 1.16 1.08 1.15 1.23 1.15 0.97 0.78 0.72 0.68 0.66 0.64 0.72 0.86 0.98 1.11 1.31 1.58 1.82 2.01
1.18 1.13 1.08 1.07 1.13 1.20 1.26 1.35 1.41 1.41 1.47 1.52 1.59 1.70 1.61 1.47 1.44 1.52 1.77 1.97 2.07 1.85 1.62 1.44 1.31 1.07 1.08 1.03 0.99 0.90 0.89 0.71 0.55 0.53 0.52 0.50 0.54 0.64 0.73 0.83 0.96 1.12 1.24
1.24 1.21 1.18 1.13 1.11 1.14 1.24 1.33 1.43 1.45 1.51 1.60 1.64 1.72 1.75 1.65 1.65 1.67 1.80 1.96 2.10 2.12 1.80 1.52 1.49 1.24 1.11 0.93 0.90 0.85 0.78 0.73 0.56 0.46 0.46 0.44 0.43 0.47 0.51 0.58 0.66 0.74 0.84
1.09 1.05 1.01 0.97 0.95 0.94 0.96 1.05 1.11 1.17 1.23 1.32 1.35 1.46 1.61 1.75 1.75 1.76 1.81 1.86 1.99 2.14 1.89 1.80 1.90 1.74 1.51 1.26 1.07 0.93 0.77 0.75 0.65 0.52 0.43 0.43 0.43 0.44 0.46 0.51 0.53 0.59 0.66
0.82 0.78 0.76 0.75 0.72 0.70 0.71 0.74 0.80 0.92 1.03 1.12 1.20 1.25 1.25 1.33 1.43 1.51 1.61 1.75 1.87 2.07 2.00 2.04 2.20 2.16 1.90 1.55 1.37 1.21 0.91 0.78 0.71 0.63 0.48 0.39 0.41 0.44 0.45 0.48 0.51 0.54 0.57
0.59 0.58 0.62 0.65 0.60 0.61 0.64 0.67 0.74 0.84 0.91 0.96 1.00 1.01 0.95 0.99 1.07 1.19 1.27 1.43 1.62 1.89 2.01 2.14 2.33 2.28 2.04 1.79 1.64 1.35 1.15 1.06 0.84 0.75 0.62 0.47 0.39 0.41 0.45 0.47 0.52 0.58 0.59
0.52 0.52 0.56 0.58 0.58 0.63 0.70 0.80 0.89 0.89 0.89 0.84 0.77 0.73 0.73 0.83 0.91 1.02 1.14 1.20 1.34 1.56 1.73 1.94 2.21 2.25 2.11 2.00 1.89 1.58 1.37 1.29 1.10 0.89 0.81 0.60 0.49 0.44 0.44 0.47 0.51 0.58 0.67
0.48 0.50 0.59 0.64 0.66 0.68 0.65 0.71 0.79 0.80 0.82 0.79 0.70 0.60 0.55 0.62 0.69 0.78 0.84 1.01 1.16 1.35 1.48 1.68 1.96 2.20 2.06 1.95 1.85 1.74 1.57 1.51 1.41 1.21 1.15 0.89 0.71 0.58 0.46 0.45 0.49 0.58 0.74
0.52 0.54 0.56 0.59 0.58 0.49 0.48 0.53 0.61 0.65 0.66 0.69 0.66 0.56 0.47 0.46 0.52 0.59 0.69 0.77 0.89 1.05 1.24 1.50 1.73 1.92 1.84 1.78 1.87 1.91 1.86 1.66 1.60 1.49 1.55 1.45 1.22 1.05 0.79 0.55 0.47 0.50 0.64
0.54 0.61 0.59 0.56 0.55 0.53 0.47 0.45 0.45 0.52 0.56 0.56 0.59 0.62 0.51 0.42 0.48 0.53 0.58 0.57 0.66 0.77 0.91 1.17 1.40 1.57 1.73 1.73 1.91 2.04 2.13 2.03 1.90 1.80 1.91 1.99 1.86 1.70 1.12 0.87 0.77 0.62 0.59
0.59 0.64 0.63 0.58 0.61 0.57 0.43 0.39 0.41 0.43 0.49 0.51 0.53 0.55 0.58 0.59 0.54 0.51 0.60 0.61 0.56 0.58 0.65 0.72 0.93 1.25 1.73 1.98 1.95 2.03 2.24 2.27 2.15 2.09 2.13 2.30 2.14 2.06 1.63 1.17 0.91 0.66 0.58
0.65 0.65 0.65 0.60 0.59 0.58 0.44 0.35 0.35 0.38 0.45 0.49 0.50 0.48 0.49 0.56 0.55 0.45 0.50 0.56 0.57 0.57 0.57 0.64 0.78 1.03 1.30 1.63 1.81 1.88 2.00 2.15 2.30 2.29 2.23 2.33 2.29 2.17 2.17 1.86 1.28 0.87 0.61
0.72 0.69 0.66 0.64 0.61 0.62 0.51 0.36 0.35 0.40 0.47 0.51 0.57 0.54 0.44 0.39 0.39 0.37 0.47 0.55 0.57 0.56 0.58 0.62 0.67 0.79 0.98 1.17 1.24 1.25 1.37 1.49 1.71 1.89 1.84 1.99 2.24 2.28 2.48 2.48 1.98 1.39 0.99

GEFSMA_prec_meanprecacc_180.txt.gz
Total_Precipitation_Accumulation
1.70 1.80 1.74 1.91 1.94 2.03 2.20 2.49 2.54 2.68 2.70 2.59 2.24 1.95 1.87 1.75 1.62 1.75 1.95 1.81 1.63 1.81 2.26 2.56 2.37 2.09 1.89 1.78 1.62 1.48 1.35 1.32 1.19 0.91 0.82 0.89 0.87 0.81 0.75 0.69 0.62 0.55 0.48
2.24 2.41 2.40 2.39 2.21 2.20 2.43 2.66 2.79 3.21 3.11 2.94 2.45 2.21 2.00 1.94 1.73 1.67 1.90 2.06 1.72 1.63 1.87 2.35 2.61 2.45 2.23 2.07 1.90 1.70 1.54 1.42 1.34 1.00 0.80 0.83 0.89 0.86 0.81 0.76 0.66 0.54 0.44
2.54 2.69 2.66 2.55 2.53 2.52 2.66 2.82 2.97 3.09 2.85 2.72 2.57 2.40 2.16 1.97 1.71 1.65 1.76 1.95 1.81 1.65 1.73 1.96 2.32 2.47 2.41 2.33 2.24 2.03 1.70 1.49 1.30 1.07 0.81 0.73 0.76 0.79 0.79 0.79 0.70 0.55 0.40
2.72 2.97 2.78 2.65 2.93 2.80 2.91 3.23 3.22 3.19 3.06 2.89 2.72 2.49 2.28 2.06 1.67 1.56 1.55 1.77 2.03 1.78 1.77 1.93 2.08 2.17 2.42 2.59 2.58 2.44 2.15 1.76 1.38 1.16 0.95 0.89 0.88 0.86 0.82 0.75 0.71 0.55 0.39
2.61 2.85 2.71 2.73 2.84 3.08 3.12 2.92 3.35 3.33 3.21 3.06 2.58 2.34 2.04 1.81 1.62 1.46 1.48 1.53 1.77 1.66 1.63 1.73 1.83 1.93 2.35 2.89 3.05 2.97 2.79 2.43 1.92 1.60 1.55 1.50 1.45 1.26 1.04 0.86 0.72 0.58 0.42
2.48 2.83 2.66 2.60 2.73 2.99 2.96 2.97 3.25 3.23 2.99 3.00 2.45 2.07 1.88 1.55 1.51 1.52 1.36 1.39 1.44 1.26 1.33 1.56 1.98 1.71 1.83 2.19 2.62 2.98 3.15 3.11 2.75 2.65 2.71 2.48 2.29 1.88 1.37 1.06 0.84 0.71 0.57
2.33 2.68 2.48 2.70 2.67 2.71 2.70 2.75 3.00 3.06 2.79 2.87 2.73 2.23 1.70 1.33 1.28 1.31 1.34 1.38 1.26 1.31 1.59 1.83 2.01 2.02 1.85 1.66 1.77 2.25 2.92 3.32 3.13 2.94 3.09 3.16 3.07 2.49 1.75 1.33 1.02 0.82 0.69
2.15 2.30 2.44 2.34 2.42 2.50 2.49 2.54 2.77 2.70 2.40 2.55 2.67 2.61 1.99 1.61 1.25 0.99 1.27 1.33 1.27 1.45 1.54 1.58 1.85 2.13 2.12 2.23 1.74 1.58 2.16 2.87 3.17 3.03 2.91 3.13 3.20 2.63 1.98 1.70 1.36 1.04 0.89
1.96 2.03 2.14 2.17 2.21 2.13 2.23 2.39 2.38 2.37 2.23 2.19 2.38 2.59 2.24 1.81 1.46 1.07 0.94 1.04 1.24 1.40 1.43 1.56 1.56 1.70 1.79 2.15 2.12 1.77 1.65 1.91 2.56 3.15 3.17 3.06 2.97 2.55 2.15 1.97 1.75 1.38 1.16
1.72 1.74 1.75 1.78 1.86 1.89 2.08 1.92 1.95 2.14 2.19 2.05 2.12 2.13 2.07 2.07 1.91 1.38 1.03 0.98 1.18 1.26 1.24 1.21 1.33 1.52 1.63 1.80 1.92 1.81 1.61 1.52 1.84 2.50 2.97 3.04 2.82 2.37 2.12 2.13 2.27 2.03 1.56
1.61 1.54 1.59 1.58 1.57 1.61 1.72 1.74 1.96 1.96 2.01 1.98 1.93 1.91 1.98 1.99 1.86 1.66 1.32 1.19 1.14 1.01 1.05 1.11 1.23 1.44 1.62 1.72 1.88 1.69 1.68 1.52 1.58 1.77 2.16 2.51 2.61 2.50 2.24 2.24 2.61 2.72 2.35
1.40 1.40 1.42 1.42 1.40 1.45 1.59 1.63 1.67 1.67 1.73 1.78 1.73 1.70 1.80 1.74 1.66 1.75 1.50 1.37 1.32 1.08 1.09 1.13 1.17 1.29 1.37 1.48 1.39 1.47 1.45 1.31 1.30 1.31 1.35 1.64 1.95 2.11 2.16 2.28 2.61 2.84 2.83
1.17 1.14 1.21 1.25 1.23 1.30 1.43 1.49 1.45 1.47 1.53 1.58 1.53 1.58 1.65 1.59 1.58 1.73 1.78 1.61 1.49 1.24 1.24 1.22 1.13 1.22 1.19 1.40 1.35 1.21 1.04 0.96 0.89 0.88 0.93 1.07 1.25 1.45 1.63 1.89 2.26 2.57 2.73
1.05 1.04 1.06 1.08 1.13 1.16 1.21 1.38 1.40 1.41 1.47 1.50 1.46 1.66 1.63 1.48 1.50 1.62 1.79 1.95 1.85 1.56 1.50 1.36 1.16 1.09 1.16 1.23 1.16 0.97 0.79 0.72 0.68 0.66 0.64 0.72 0.86 0.98 1.11 1.31 1.59 1.82 2.01
1.23 1.20 1.14 1.12 1.16 1.23 1.31 1.40 1.46 1.46 1.54 1.57 1.63 1.74 1.64 1.49 1.45 1.52 1.78 1.98 2.12 1.92 1.67 1.47 1.33 1.07 1.08 1.03 0.99 0.90 0.89 0.71 0.55 0.53 0.52 0.50 0.54 0.64 0.73 0.83 0.96 1.12 1.24
1.33 1.31 1.28 1.20 1.16 1.20 1.30 1.39 1.49 1.51 1.57 1.66 1.69 1.77 1.80 1.67 1.67 1.69 1.81 1.97 2.11 2.15 1.84 1.54 1.50 1.24 1.11 0.93 0.90 0.85 0.79 0.73 0.56 0.46 0.46 0.44 0.43 0.47 0.51 0.58 0.66 0.74 0.84
1.21 1.15 1.09 1.04 1.01 1.00 1.03 1.12 1.17 1.23 1.29 1.37 1.39 1.50 1.65 1.78 1.79 1.79 1.83 1.87 1.99 2.16 1.92 1.82 1.90 1.75 1.52 1.26 1.07 0.93 0.77 0.75 0.65 0.52 0.43 0.43 0.43 0.44 0.46 0.51 0.53 0.59 0.66
0.91 0.86 0.86 0.85 0.79 0.76 0.77 0.81 0.86 0.98 1.09 1.18 1.25 1.31 1.31 1.39 1.49 1.55 1.65 1.77 1.89 2.10 2.03 2.07 2.22 2.18 1.92 1.56 1.38 1.21 0.91 0.78 0.71 0.63 0.48 0.39 0.41 0.44 0.45 0.48 0.51 0.54 0.57
0.67 0.66 0.71 0.73 0.67 0.66 0.69 0.73 0.79 0.89 0.96 1.02 1.06 1.06 1.02 1.06 1.13 1.25 1.32 1.47 1.65 1.91 2.04 2.17 2.36 2.32 2.07 1.80 1.65 1.36 1.15 1.07 0.84 0.75 0.62 0.47 0.39 0.41 0.45 0.47 0.52 0.58 0.59
0.58 0.60 0.64 0.66 0.65 0.69 0.76 0.87 0.94 0.95 0.95 0.90 0.84 0.79 0.79 0.89 0.97 1.08 1.19 1.25 1.39 1.60 1.78 1.98 2.25 2.29 2.14 2.02 1.91 1.59 1.38 1.29 1.11 0.89 0.81 0.60 0.49 0.44 0.44 0.47 0.51 0.58 0.67
0.55 0.60 0.68 0.73 0.74 0.75 0.71 0.79 0.87 0.88 0.91 0.86 0.77 0.65 0.60 0.67 0.75 0.84 0.88 1.05 1.20 1.39 1.52 1.72 2.00 2.24 2.10 1.99 1.88 1.76 1.59 1.53 1.42 1.21 1.16 0.89 0.71 0.58 0.46 0.45 0.49 0.58 0.74
0.62 0.63 0.64 0.67 0.66 0.54 0.55 0.61 0.69 0.75 0.78 0.79 0.74 0.63 0.53 0.51 0.56 0.63 0.73 0.81 0.93 1.10 1.28 1.55 1.78 1.98 1.90 1.83 1.91 1.95 1.89 1.69 1.63 1.51 1.57 1.46 1.22 1.06 0.80 0.55 0.47 0.50 0.64
0.63 0.69 0.65 0.63 0.62 0.62 0.59 0.58 0.56 0.62 0.68 0.65 0.68 0.71 0.56 0.46 0.54 0.57 0.63 0.62 0.70 0.80 0.94 1.21 1.45 1.63 1.80 1.80 1.98 2.10 2.18 2.07 1.93 1.82 1.93 2.00 1.87 1.70 1.12 0.88 0.78 0.62 0.60
0.67 0.70 0.70 0.66 0.71 0.69 0.58 0.54 0.54 0.55 0.60 0.60 0.61 0.62 0.65 0.66 0.60 0.58 0.66 0.67 0.61 0.63 0.70 0.77 0.98 1.31 1.82 2.08 2.05 2.12 2.31 2.32 2.18 2.11 2.15 2.32 2.16 2.07 1.64 1.18 0.92 0.67 0.58
0.73 0.70 0.71 0.67 0.67 0.67 0.53 0.43 0.42 0.46 0.53 0.56 0.56 0.54 0.54 0.60 0.61 0.52 0.59 0.63 0.62 0.62 0.63 0.70 0.84 1.09 1.37 1.69 1.87 1.93 2.04 2.18 2.33 2.31 2.26 2.35 2.31 2.19 2.18 1.86 1.28 0.89 0.62
0.80 0.76 0.72 0.69 0.67 0.70 0.58 0.41 0.40 0.45 0.54 0.58 0.64 0.59 0.47 0.44 0.46 0.45 0.54 0.62 0.62 0.62 0.66 0.69 0.72 0.83 1.01 1.20 1.26 1.28 1.39 1.52 1.74 1.92 1.87 2.02 2.27 2.31 2.49 2.49 1.99 1.39 1.00

GEFSMA_prec_meanprecacc_186.txt.gz
Total_Precipitation_Accumulation
1.71 1.81 1.75 1.92 1.96 2.05 2.22 2.52 2.58 2.74 2.76 2.68 2.33 2.03 1.95 1.82 1.68 1.79 1.97 1.85 1.73 1.91 2.30 2.61 2.42 2.12 1.92 1.80 1.63 1.49 1.36 1.33 1.20 0.92 0.83 0.91 0.88 0.82 0.76 0.69 0.63 0.56 0.49
2.24 2.41 2.40 2.40 2.22 2.21 2.44 2.67 2.82 3.25 3.15 3.02 2.54 2.28 2.06 1.98 1.79 1.71 1.92 2.08 1.74 1.66 1.89 2.37 2.63 2.47 2.24 2.08 1.91 1.71 1.55 1.44 1.35 1.02 0.81 0.84 0.90 0.87 0.83 0.77 0.66 0.55 0.45
2.55 2.70 2.66 2.55 2.54 2.53 2.67 2.84 3.02 3.13 2.90 2.78 2.63 2.45 2.21 2.03 1.77 1.70 1.79 1.97 1.82 1.67 1.76 1.99 2.35 2.49 2.42 2.35 2.26 2.04 1.71 1.51 1.31 1.08 0.82 0.75 0.78 0.81 0.80 0.81 0.71 0.56 0.41
2.73 2.97 2.79 2.66 2.94 2.81 2.93 3.26 3.26 3.23 3.11 2.94 2.78 2.55 2.34 2.12 1.72 1.61 1.59 1.79 2.06 1.80 1.79 1.96 2.10 2.18 2.43 2.61 2.60 2.46 2.16 1.77 1.39 1.17 0.96 0.90 0.90 0.87 0.83 0.77 0.72 0.56 0.39
2.62 2.85 2.72 2.74 2.85 3.11 3.15 2.94 3.37 3.35 3.25 3.11 2.62 2.38 2.10 1.88 1.67 1.50 1.52 1.57 1.81 1.69 1.65 1.75 1.85 1.95 2.37 2.91 3.09 3.01 2.81 2.44 1.93 1.61 1.56 1.51 1.45 1.27 1.05 0.88 0.73 0.59 0.43
2.50 2.86 2.67 2.61 2.74 3.01 2.98 2.99 3.27 3.25 3.01 3.03 2.49 2.12 1.94 1.61 1.57 1.57 1.40 1.43 1.48 1.28 1.36 1.58 1.99 1.72 1.85 2.21 2.66 3.04 3.19 3.15 2.78 2.67 2.73 2.50 2.30 1.89 1.37 1.07 0.85 0.71 0.57
2.35 2.71 2.49 2.70 2.67 2.72 2.71 2.76 3.01 3.07 2.81 2.90 2.78 2.30 1.77 1.40 1.36 1.37 1.39 1.42 1.29 1.34 1.63 1.86 2.03 2.03 1.86 1.68 1.80 2.28 2.95 3.35 3.16 2.96 3.11 3.18 3.09 2.50 1.76 1.34 1.03 0.82 0.70
2.18 2.32 2.45 2.35 2.43 2.51 2.50 2.55 2.78 2.71 2.40 2.57 2.69 2.64 2.03 1.68 1.33 1.05 1.31 1.36 1.30 1.48 1.58 1.61 1.88 2.14 2.12 2.23 1.75 1.59 2.18 2.88 3.19 3.06 2.94 3.16 3.22 2.65 1.99 1.72 1.37 1.04 0.89
2.00 2.06 2.16 2.18 2.22 2.13 2.24 2.41 2.39 2.38 2.23 2.21 2.39 2.61 2.26 1.84 1.49 1.10 0.98 1.08 1.27 1.42 1.46 1.59 1.58 1.72 1.80 2.16 2.13 1.78 1.66 1.93 2.58 3.18 3.20 3.08 2.98 2.56 2.16 1.98 1.76 1.39 1.17
1.75 1.76 1.77 1.79 1.86 1.90 2.09 1.93 1.96 2.15 2.20 2.07 2.14 2.15 2.09 2.08 1.93 1.40 1.05 1.00 1.21 1.29 1.28 1.24 1.34 1.53 1.63 1.81 1.93 1.81 1.63 1.53 1.85 2.51 3.00 3.06 2.84 2.38 2.13 2.14 2.27 2.03 1.56
1.64 1.56 1.60 1.59 1.58 1.61 1.73 1.75 1.97 1.98 2.02 1.99 1.94 1.93 2.01 2.01 1.87 1.67 1.33 1.21 1.19 1.05 1.08 1.14 1.25 1.45 1.62 1.73 1.88 1.70 1.69 1.54 1.59 1.77 2.17 2.52 2.62 2.51 2.25 2.25 2.62 2.72 2.36
1.45 1.45 1.45 1.44 1.42 1.47 1.60 1.64 1.69 1.69 1.75 1.79 1.74 1.73 1.84 1.77 1.68 1.76 1.51 1.38 1.33 1.09 1.11 1.15 1.18 1.30 1.38 1.48 1.39 1.48 1.46 1.33 1.31 1.31 1.36 1.65 1.96 2.12 2.16 2.28 2.61 2.84 2.83
1.20 1.18 1.26 1.30 1.28 1.32 1.44 1.50 1.46 1.49 1.55 1.59 1.55 1.60 1.68 1.62 1.61 1.75 1.79 1.62 1.50 1.25 1.26 1.24 1.15 1.23 1.19 1.40 1.36 1.22 1.05 0.97 0.90 0.88 0.93 1.07 1.25 1.45 1.63 1.89 2.26 2.58 2.73
1.09 1.08 1.12 1.14 1.17 1.19 1.23 1.40 1.43 1.43 1.49 1.52 1.48 1.68 1.65 1.50 1.52 1.65 1.82 1.97 1.87 1.57 1.50 1.39 1.20 1.10 1.17 1.24 1.17 0.98 0.79 0.72 0.68 0.66 0.64 0.72 0.86 0.98 1.11 1.31 1.59 1.82 2.01
1.28 1.25 1.20 1.18 1.22 1.29 1.35 1.45 1.51 1.50 1.56 1.59 1.65 1.75 1.65 1.50 1.47 1.54 1.81 2.01 2.14 1.93 1.68 1.48 1.35 1.08 1.09 1.04 1.00 0.91 0.89 0.72 0.56 0.53 0.52 0.50 0.54 0.64 0.74 0.83 0.96 1.12 1.24
1.40 1.39 1.36 1.29 1.25 1.29 1.40 1.50 1.56 1.56 1.60 1.67 1.70 1.78 1.81 1.69 1.68 1.70 1.83 2.00 2.13 2.17 1.85 1.54 1.50 1.24 1.12 0.94 0.91 0.86 0.79 0.73 0.56 0.47 0.47 0.44 0.44 0.47 0.51 0.58 0.66 0.74 0.84
1.30 1.26 1.21 1.17 1.14 1.14 1.17 1.22 1.23 1.27 1.32 1.39 1.40 1.51 1.66 1.80 1.80 1.80 1.85 1.90 2.02 2.18 1.94 1.82 1.91 1.77 1.53 1.28 1.08 0.94 0.78 0.75 0.65 0.53 0.44 0.44 0.44 0.45 0.46 0.51 0.53 0.59 0.66
1.03 0.97 0.97 0.97 0.91 0.87 0.89 0.89 0.91 1.02 1.12 1.20 1.27 1.33 1.32 1.40 1.50 1.56 1.67 1.81 1.92 2.12 2.05 2.08 2.23 2.20 1.93 1.57 1.39 1.22 0.93 0.80 0.72 0.64 0.49 0.40 0.42 0.45 0.45 0.49 0.51 0.54 0.57
0.76 0.76 0.80 0.84 0.81 0.78 0.78 0.79 0.85 0.93 1.00 1.05 1.10 1.10 1.05 1.08 1.15 1.27 1.33 1.49 1.67 1.94 2.06 2.18 2.37 2.33 2.09 1.83 1.67 1.39 1.17 1.09 0.87 0.77 0.64 0.49 0.41 0.42 0.46 0.48 0.53 0.58 0.59
0.66 0.69 0.73 0.76 0.77 0.80 0.85 0.94 1.00 1.01 0.99 0.94 0.88 0.84 0.84 0.92 0.99 1.10 1.20 1.26 1.41 1.64 1.81 2.01 2.26 2.30 2.16 2.04 1.95 1.64 1.43 1.33 1.15 0.94 0.85 0.63 0.52 0.46 0.46 0.48 0.52 0.59 0.67
0.60 0.67 0.77 0.82 0.85 0.85 0.79 0.88 0.96 0.96 0.97 0.91 0.81 0.70 0.65 0.71 0.78 0.87 0.91 1.08 1.24 1.43 1.56 1.75 2.02 2.26 2.11 2.01 1.90 1.79 1.62 1.56 1.46 1.27 1.21 0.93 0.74 0.60 0.48 0.47 0.51 0.60 0.75
0.69 0.72 0.71 0.74 0.73 0.60 0.63 0.72 0.80 0.85 0.87 0.86 0.80 0.70 0.59 0.58 0.62 0.70 0.79 0.86 0.98 1.15 1.33 1.59 1.82 2.01 1.92 1.85 1.94 1.98 1.93 1.73 1.67 1.56 1.62 1.52 1.28 1.11 0.84 0.59 0.50 0.53 0.67
0.72 0.77 0.72 0.69 0.68 0.67 0.69 0.69 0.68 0.74 0.80 0.76 0.78 0.79 0.65 0.52 0.60 0.64 0.69 0.68 0.75 0.86 1.00 1.25 1.48 1.65 1.82 1.82 2.01 2.14 2.24 2.14 2.01 1.90 2.01 2.08 1.94 1.76 1.17 0.92 0.82 0.66 0.62
0.78 0.79 0.79 0.74 0.77 0.74 0.65 0.61 0.64 0.67 0.74 0.74 0.72 0.73 0.75 0.75 0.69 0.65 0.71 0.72 0.64 0.66 0.74 0.80 1.01 1.33 1.84 2.10 2.08 2.16 2.37 2.39 2.24 2.16 2.20 2.35 2.18 2.09 1.65 1.20 0.94 0.68 0.60
0.83 0.80 0.79 0.75 0.74 0.73 0.60 0.50 0.51 0.55 0.64 0.69 0.69 0.65 0.63 0.68 0.68 0.59 0.65 0.68 0.67 0.66 0.67 0.75 0.88 1.12 1.40 1.71 1.90 1.96 2.07 2.21 2.35 2.33 2.28 2.37 2.32 2.20 2.19 1.87 1.29 0.89 0.62
0.90 0.85 0.80 0.76 0.73 0.75 0.63 0.46 0.45 0.51 0.60 0.65 0.71 0.67 0.56 0.51 0.51 0.50 0.59 0.68 0.67 0.66 0.70 0.73 0.75 0.86 1.04 1.23 1.30 1.31 1.42 1.55 1.76 1.94 1.89 2.05 2.29 2.33 2.50 2.49 1.99 1.40 1.00

GEFSMA_prec_meanprecacc_192.txt.gz
Total_Precipitation_Accumulation
1.71 1.81 1.75 1.92 1.96 2.06 2.23 2.54 2.61 2.76 2.78 2.71 2.36 2.05 1.96 1.83 1.69 1.79 1.98 1.91 1.81 1.97 2.37 2.72 2.59 2.22 1.98 1.84 1.66 1.51 1.40 1.37 1.23 0.95 0.86 0.92 0.91 0.86 0.79 0.73 0.67 0.60 0.51
2.25 2.42 2.41 2.41 2.23 2.22 2.45 2.70 2.85 3.28 3.18 3.05 2.57 2.31 2.08 2.00 1.80 1.72 1.93 2.12 1.80 1.72 2.00 2.52 2.75 2.54 2.28 2.11 1.94 1.74 1.59 1.48 1.39 1.04 0.83 0.85 0.92 0.89 0.85 0.80 0.69 0.58 0.48
2.56 2.70 2.67 2.56 2.55 2.53 2.69 2.87 3.05 3.16 2.93 2.81 2.66 2.49 2.24 2.05 1.79 1.71 1.80 1.99 1.85 1.72 1.83 2.09 2.46 2.58 2.50 2.41 2.31 2.08 1.74 1.54 1.34 1.10 0.84 0.77 0.80 0.82 0.82 0.82 0.74 0.59 0.42
2.74 2.98 2.80 2.67 2.95 2.82 2.94 3.29 3.30 3.27 3.15 2.97 2.82 2.58 2.36 2.14 1.74 1.63 1.62 1.80 2.07 1.82 1.82 2.02 2.17 2.24 2.50 2.67 2.66 2.52 2.20 1.80 1.41 1.18 0.97 0.91 0.91 0.88 0.84 0.78 0.73 0.58 0.41
2.65 2.87 2.73 2.75 2.86 3.12 3.17 2.97 3.40 3.39 3.27 3.13 2.65 2.42 2.13 1.92 1.70 1.53 1.55 1.59 1.83 1.70 1.66 1.78 1.90 1.99 2.43 2.97 3.16 3.08 2.87 2.48 1.95 1.63 1.57 1.52 1.46 1.28 1.06 0.89 0.75 0.60 0.44
2.52 2.87 2.68 2.62 2.75 3.03 3.00 3.00 3.30 3.28 3.03 3.05 2.52 2.16 1.97 1.65 1.62 1.61 1.43 1.47 1.51 1.30 1.38 1.60 2.01 1.75 1.89 2.26 2.72 3.11 3.26 3.19 2.81 2.69 2.75 2.52 2.31 1.90 1.38 1.08 0.86 0.73 0.59
2.37 2.72 2.51 2.71 2.68 2.74 2.73 2.78 3.03 3.09 2.82 2.91 2.81 2.33 1.80 1.43 1.40 1.40 1.41 1.45 1.32 1.36 1.66 1.90 2.06 2.05 1.88 1.71 1.84 2.34 3.01 3.40 3.21 3.00 3.14 3.21 3.12 2.52 1.77 1.35 1.04 0.84 0.71
2.20 2.34 2.47 2.37 2.44 2.53 2.54 2.58 2.79 2.73 2.42 2.58 2.72 2.67 2.05 1.70 1.34 1.07 1.33 1.39 1.32 1.50 1.61 1.64 1.91 2.16 2.14 2.24 1.76 1.64 2.23 2.94 3.24 3.10 2.98 3.19 3.24 2.66 2.00 1.73 1.38 1.05 0.90
2.02 2.08 2.18 2.21 2.23 2.15 2.28 2.44 2.41 2.39 2.25 2.22 2.41 2.63 2.27 1.84 1.50 1.11 0.99 1.10 1.30 1.45 1.48 1.61 1.61 1.74 1.82 2.17 2.13 1.80 1.70 1.97 2.63 3.23 3.24 3.12 3.01 2.58 2.17 1.99 1.77 1.40 1.18
1.77 1.79 1.79 1.81 1.87 1.91 2.11 1.96 1.99 2.16 2.22 2.08 2.15 2.17 2.11 2.10 1.93 1.41 1.06 1.02 1.22 1.32 1.31 1.26 1.37 1.54 1.64 1.82 1.93 1.82 1.63 1.55 1.87 2.55 3.04 3.10 2.87 2.41 2.15 2.16 2.29 2.05 1.58
1.67 1.59 1.63 1.61 1.60 1.63 1.74 1.76 1.99 2.00 2.04 2.01 1.96 1.94 2.02 2.02 1.88 1.69 1.35 1.22 1.19 1.06 1.09 1.15 1.27 1.46 1.63 1.73 1.88 1.71 1.70 1.55 1.60 1.78 2.19 2.56 2.66 2.54 2.26 2.26 2.63 2.74 2.37
1.48 1.48 1.49 1.48 1.45 1.49 1.61 1.65 1.71 1.71 1.77 1.80 1.75 1.74 1.85 1.78 1.70 1.78 1.53 1.40 1.35 1.10 1.11 1.16 1.19 1.31 1.39 1.49 1.39 1.48 1.47 1.34 1.32 1.33 1.37 1.66 1.97 2.14 2.18 2.30 2.63 2.86 2.85
1.24 1.23 1.31 1.34 1.31 1.35 1.48 1.53 1.49 1.52 1.58 1.60 1.57 1.62 1.70 1.64 1.62 1.76 1.81 1.64 1.51 1.25 1.26 1.25 1.16 1.24 1.20 1.41 1.37 1.23 1.06 0.99 0.92 0.91 0.95 1.08 1.26 1.46 1.64 1.90 2.28 2.59 2.74
1.13 1.13 1.18 1.20 1.22 1.25 1.28 1.44 1.48 1.48 1.53 1.55 1.51 1.71 1.67 1.51 1.54 1.67 1.84 1.99 1.88 1.57 1.51 1.39 1.21 1.11 1.17 1.25 1.18 0.99 0.79 0.73 0.69 0.67 0.66 0.73 0.87 0.99 1.12 1.32 1.59 1.83 2.02
1.35 1.34 1.29 1.26 1.29 1.34 1.41 1.53 1.60 1.58 1.63 1.62 1.68 1.77 1.67 1.51 1.49 1.56 1.82 2.03 2.16 1.94 1.68 1.49 1.35 1.09 1.09 1.05 1.00 0.91 0.89 0.72 0.56 0.54 0.53 0.51 0.56 0.65 0.75 0.85 0.97 1.13 1.25
1.51 1.49 1.44 1.37 1.33 1.37 1.49 1.59 1.64 1.64 1.67 1.72 1.74 1.81 1.83 1.70 1.70 1.72 1.85 2.02 2.15 2.19 1.86 1.55 1.52 1.26 1.13 0.94 0.91 0.86 0.79 0.73 0.57 0.47 0.47 0.45 0.45 0.48 0.52 0.59 0.67 0.75 0.85
1.44 1.36 1.28 1.24 1.23 1.22 1.26 1.30 1.32 1.35 1.39 1.44 1.44 1.54 1.69 1.82 1.82 1.81 1.87 1.92 2.05 2.21 1.95 1.84 1.93 1.78 1.54 1.28 1.08 0.94 0.78 0.76 0.66 0.53 0.44 0.44 0.45 0.46 0.48 0.52 0.55 0.61 0.67
1.16 1.06 1.05 1.05 1.00 0.96 0.97 0.98 1.00 1.10 1.20 1.27 1.35 1.41 1.37 1.45 1.52 1.59 1.69 1.83 1.95 2.15 2.07 2.09 2.24 2.21 1.94 1.57 1.40 1.23 0.93 0.80 0.73 0.64 0.50 0.40 0.43 0.45 0.46 0.50 0.53 0.55 0.59
0.85 0.82 0.85 0.89 0.88 0.85 0.84 0.85 0.91 0.99 1.06 1.12 1.18 1.18 1.12 1.15 1.20 1.31 1.38 1.52 1.70 1.97 2.09 2.20 2.38 2.34 2.10 1.84 1.69 1.40 1.18 1.10 0.87 0.78 0.65 0.49 0.41 0.43 0.47 0.49 0.54 0.60 0.60
0.73 0.75 0.77 0.81 0.84 0.87 0.91 1.01 1.06 1.07 1.06 1.00 0.94 0.90 0.89 0.97 1.04 1.15 1.25 1.29 1.43 1.66 1.83 2.03 2.28 2.32 2.17 2.06 1.96 1.65 1.44 1.34 1.17 0.95 0.86 0.64 0.52 0.46 0.47 0.49 0.53 0.61 0.69
0.68 0.75 0.84 0.88 0.93 0.93 0.86 0.95 1.03 1.02 1.02 0.96 0.87 0.76 0.71 0.77 0.84 0.93 0.95 1.10 1.26 1.46 1.59 1.78 2.05 2.29 2.13 2.03 1.92 1.80 1.64 1.58 1.48 1.29 1.23 0.94 0.75 0.61 0.49 0.48 0.52 0.62 0.78
0.81 0.82 0.79 0.81 0.81 0.68 0.71 0.81 0.88 0.91 0.92 0.92 0.86 0.75 0.65 0.65 0.68 0.76 0.84 0.91 1.03 1.20 1.38 1.64 1.86 2.05 1.95 1.88 1.97 2.01 1.95 1.75 1.69 1.58 1.65 1.54 1.30 1.13 0.86 0.62 0.54 0.58 0.72
0.85 0.90 0.84 0.78 0.74 0.74 0.77 0.76 0.74 0.80 0.86 0.82 0.84 0.84 0.70 0.58 0.67 0.71 0.77 0.77 0.85 0.94 1.06 1.31 1.53 1.69 1.85 1.85 2.04 2.17 2.26 2.16 2.03 1.91 2.03 2.09 1.95 1.78 1.19 0.94 0.85 0.70 0.67
0.91 0.92 0.91 0.85 0.87 0.84 0.76 0.69 0.71 0.72 0.80 0.79 0.78 0.78 0.79 0.79 0.74 0.72 0.79 0.80 0.72 0.73 0.80 0.85 1.04 1.36 1.87 2.12 2.10 2.18 2.39 2.41 2.26 2.18 2.23 2.38 2.20 2.11 1.67 1.21 0.95 0.70 0.61
0.94 0.90 0.89 0.84 0.82 0.82 0.71 0.61 0.61 0.63 0.71 0.74 0.74 0.71 0.69 0.73 0.75 0.68 0.73 0.75 0.73 0.72 0.74 0.81 0.93 1.16 1.43 1.74 1.92 1.99 2.10 2.24 2.37 2.36 2.31 2.40 2.35 2.22 2.21 1.89 1.31 0.91 0.64
1.02 0.94 0.87 0.83 0.81 0.82 0.70 0.53 0.52 0.57 0.65 0.69 0.76 0.73 0.62 0.56 0.57 0.58 0.66 0.75 0.74 0.71 0.76 0.79 0.80 0.89 1.07 1.25 1.33 1.34 1.45 1.57 1.78 1.96 1.90 2.07 2.31 2.36 2.53 2.51 2.00 1.41 1.02